Weather in Nizhnyaya Ivolga

Russia / Republic of Buryatia     51°46′19″N   107°25′12″E
temp.,
°C
wind,
m/s
gust,
m/s
humid.,
%
clouds,
%
prec.,
mm/h
press.,
hPa
HPBL,
m
10 may, mon
mon1023:00+8nw2368100 0.0 100770
02:00+5n2390100 2.4 1009299
05:00+3nw2696100 0.6 1010639
08:00+5nw5978100 2.6 1011953
11:00+6nw5764100 0.8 10121240
14:00+7nw576191 0.9 10131412
17:00+6nnw577081 0.1 10131088
20:00+4nw388797 0.1 1015634
11 may, tue
tue1123:00+4nw3781100 0.0 1015886
02:00+3wnw2586100 0.1 1015493
05:00+3wnw1387100 0.0 1016306
08:00+4wnw2586100 0.0 1016687
11:00+7nnw476772 0.1 10161055
14:00+11nnw574817 0.1 10141663
17:00+11nw565019 0.1 10141513
20:00+7wnw23755 0.1 101588
12 may, wed
wed1223:00+4sw22888 0.0 101620
02:00+3sw22885 0.0 101624
05:00+2sw12885 0.0 101517
08:00+7sw11615 0.0 1014331
11:00+12wnw244699 0.1 10111607
14:00+14nw353597 0.7 10082316
17:00+14nnw553294 0.0 10071661
20:00+10n474890 0.0 1008340
13 may, thu
thu1323:00+5n2261100 0.0 101032
02:00+5n2466100 0.0 1011124
05:00+3n237299 0.0 101273
08:00+6n3457100 0.0 1012486
11:00+8nnw5739100 0.0 10121862
14:00+9nw6726100 0.0 10112343
17:00+10nnw782684 0.0 10112886
20:00+6nw58403 0.0 1013506
14 may, fri
fri1423:00+2wnw23591 0.0 101671
02:000wsw12680 0.0 101723
05:00−1wsw11720 0.0 101914
08:00+5sw12460 0.0 1018421
11:00+11sw23250 0.0 10151703
14:00+14sw45200 0.0 10122219
17:00+14sw45191 0.0 10091812
20:00+11sse22297 0.0 100935